Location: Grambois
(43.7619°N, 5.5873°E)
Time: 09:21:50
(UTC+00:00)

BREEZE-M DEB (TANK) - Pass Details

Date: 05 October 2020
Orbit: 333 x 12040 km, 49.7° (Epoch: 22 October)

Event Time Altitude Azimuth Distance (km) Brightness Sun altitude
Rises 04:28:37 0° 213° (SSW) 14,524 8.9 -13.7°
Reaches altitude 10° 04:40:51 10° 213° (SSW) 14,643 8.9 -11.5°
Maximum altitude 06:20:23 84° 142° (SE) 8,253 8.2 6.3°
Drops below altitude 10° 06:50:50 10° 63° (ENE) 6,448 8.3 11.6°
Sets 06:53:48 0° 63° (ENE) 6,775 8.4 12.1°
